WeatherOLA & Area Weather Station Summaries and History

Weather history for Indianola, Kingston, Poulsbo, Bainbridge Island, Silverdale other area weather stations. Select a station for detailed historical weather information of any date and time in five minute intervals. Great for looking up the timing of interesting weather events that are closest to you.

Station Historical Data
 
Daily Summary for May 28, 2018 Units:  English    Metric   Both
« Previous Day
Next Day »
Daily Weekly Monthly Yearly Custom
  Current: High: Low: Average:
Temperature: 50.4 °F 53.4 °F 50.4 °F 51.4 °F
Dew Point: 48.6 °F 49.5 °F 48 °F 48.7 °F
Humidity: 93% 93% 86% 90%
Wind Speed: 0mph 0mph 0mph 0mph
Wind Gust: 0mph 0mph - -
WindCalm - - North
Pressure: 30.2 in 30.2 in 30.2 in -
Precipitation: 0 in      
Historical Graphs
 
 
Tabular Data for May 28, 2018
Time Temperature Dew Point Pressure Wind Wind Speed Wind Gust Humidity Rainfall Rate (Hourly) solar Conditions
00:01 53.4 °F 49.5 °F 30.2 in Calm     86% 0 in WeatherDisplay:10.37 W/m2 CLR
00:06 53.2 °F 49.3 °F 30.2 in Calm     86% 0 in WeatherDisplay:10.37 W/m2 CLR
00:11 53.1 °F 49.3 °F 30.2 in Calm     87% 0 in WeatherDisplay:10.37 W/m2 CLR
00:16 53.1 °F 49.3 °F 30.2 in Calm     87% 0 in WeatherDisplay:10.37 W/m2 CLR
00:21 52.7 °F 48.9 °F 30.2 in Calm     87% 0 in WeatherDisplay:10.37 W/m2 CLR
00:26 52.5 °F 48.9 °F 30.2 in Calm     88% 0 in WeatherDisplay:10.37 W/m2 CLR
00:31 52.3 °F 48.9 °F 30.2 in Calm     88% 0 in WeatherDisplay:10.37 W/m2 CLR
00:36 52.2 °F 48.7 °F 30.2 in Calm     88% 0 in WeatherDisplay:10.37 W/m2 CLR
00:41 52 °F 48.9 °F 30.2 in Calm     89% 0 in WeatherDisplay:10.37 W/m2 CLR
00:46 52 °F 48.7 °F 30.2 in Calm     89% 0 in WeatherDisplay:10.37 W/m2 CLR
00:51 51.8 °F 48.9 °F 30.2 in Calm     90% 0 in WeatherDisplay:10.37 W/m2 CLR
00:56 51.8 °F 48.9 °F 30.2 in Calm     90% 0 in WeatherDisplay:10.37 W/m2 CLR
01:01 51.6 °F 48.9 °F 30.2 in Calm     90% 0 in WeatherDisplay:10.37 W/m2 CLR
01:06 51.4 °F 48.7 °F 30.2 in Calm     90% 0 in WeatherDisplay:10.37 W/m2 CLR
01:11 51.4 °F 48.7 °F 30.2 in Calm     90% 0 in WeatherDisplay:10.37 W/m2 CLR
01:16 51.4 °F 48.9 °F 30.2 in Calm     91% 0 in WeatherDisplay:10.37 W/m2 CLR
01:21 51.4 °F 48.9 °F 30.2 in Calm     91% 0 in WeatherDisplay:10.37 W/m2 CLR
01:26 51.3 °F 48.7 °F 30.2 in Calm     91% 0 in WeatherDisplay:10.37 W/m2 CLR
01:31 51.3 °F 48.7 °F 30.2 in Calm     91% 0 in WeatherDisplay:10.37 W/m2 CLR
01:36 51.1 °F 48.6 °F 30.2 in Calm     91% 0 in WeatherDisplay:10.37 W/m2 CLR
01:41 51.1 °F 48.6 °F 30.2 in Calm     91% 0 in WeatherDisplay:10.37 W/m2 CLR
01:46 51.1 °F 48.6 °F 30.2 in Calm     91% 0 in WeatherDisplay:10.37 W/m2 CLR
01:51 50.9 °F 48.4 °F 30.2 in Calm     91% 0 in WeatherDisplay:10.37 W/m2 CLR
01:56 50.7 °F 48.4 °F 30.2 in Calm     91% 0 in WeatherDisplay:10.37 W/m2 CLR
02:01 50.7 °F 48.6 °F 30.2 in Calm     92% 0 in WeatherDisplay:10.37 W/m2 CLR
02:06 50.5 °F 48.4 °F 30.2 in Calm     92% 0 in WeatherDisplay:10.37 W/m2 CLR
02:11 50.5 °F 48.4 °F 30.2 in Calm     92% 0 in WeatherDisplay:10.37 W/m2 CLR
02:16 50.5 °F 48.4 °F 30.2 in Calm     92% 0 in WeatherDisplay:10.37 W/m2 CLR
02:21 50.4 °F 48.2 °F 30.2 in Calm     92% 0 in WeatherDisplay:10.37 W/m2 CLR
02:26 50.4 °F 48.2 °F 30.2 in Calm     92% 0 in WeatherDisplay:10.37 W/m2 CLR
02:31 50.4 °F 48 °F 30.2 in Calm     92% 0 in WeatherDisplay:10.37 W/m2 CLR
02:36 50.4 °F 48 °F 30.2 in Calm     92% 0 in WeatherDisplay:10.37 W/m2 CLR
02:41 50.4 °F 48.4 °F 30.2 in Calm     93% 0 in WeatherDisplay:10.37 W/m2 CLR
02:46 50.4 °F 48.4 °F 30.2 in Calm     93% 0 in WeatherDisplay:10.37 W/m2 CLR
02:51 50.4 °F 48.6 °F 30.2 in Calm     93% 0 in WeatherDisplay:10.37 W/m2 CLR
Indianola, WA, USA
Compliments of Weather Underground - 1.75 mb